BREEZE-KM R/B, 39486

Orbit data source: Space-Track

BREEZE-KM R/B, 39486 is space debris in LEO originally from a launch on Wed, 25 Dec 2013 UTC launched from the Plesetsk Missile And Space Complex (PKMTR). Debris objects in space refer to the collection of defunct objects orbiting the Earth. Examples of debris include non-operational satellites, rocket bodies, and fragments generated from explosions, collisions, or faulty payload assembly.

Loading next visibility...
Identifier
39486, 2013-076D
Orbit
LEO
Country
Flag of CISCIS
Related business
Manufacturer
Khrunichev
Mission
Spacecraft
Bus & Motor
BRIZ, S5.92
Mass
2,370 kg wet, 2,370 kg dry
Launch date (UTC)
2013-12-25 (12 years ago)
Launch vehicle
Unknown
Launch site
Plesetsk Missile And Space Complex (PKMTR)
Object type
Payload
Rocket body
Debris
Shape & HBR
Hex Cyl + 1 Rod, 2.0 m
Radar Cross Section
10.190 m², Large (>1 m²)

Expand to show TLE details & history
Last TLE update: 13 hours ago

TLE from 13 hours ago
0 BREEZE-KM R/B
1 39486U 13076D   25351.58506704  .00000019  00000-0  23951-4 0  9992
2 39486  82.4834  69.2207 0233886  68.9445 293.6496 12.82988101560968
Epoch: 2025-12-17T14:02Z
TLE epoch observation values (Epoch: 2025-12-17T14:02:29.792Z)
Latitude
-0.0001°
Longitude
132.14374°
Altitude
1,263.498 km
Speed
7.256 km/s
True Right ascension
04h 36m 52s
True Declination
0° 00' 00"
Sunlit
Object was in full shadow at epoch
Visualization orbit readout
Latitude
Unknown
Longitude
Unknown
Altitude
Unknown
Speed
Unknown
Apparent Right ascension
Unknown
Apparent Declination
Unknown
Sunlit
N/A
Visualization observer readout
Local Sidereal Time
01:20:00
Azimuth
Unknown
Elevation
Unknown
Doppler factor
Unknown
Orbital elements
Apogee altitude
1,506.979 km
Perigee altitude
1,146.565 km
Semi-major axis
7,704.909 km
Eccentricity
0.02339
Inclination
82.4834°
RAAN
69.2207°
Arg. of periapsis
68.9445°
True anomaly
291.16621°
Mean anomaly
293.6496°
Eccentric anomaly
292.41074°
Mean motion
3.20916 °/min
Orbital period
112.18 mins
BSTAR
0.000023951
Loading maneuver chart data...
Computing Atmospheric mass density...
Loading historical data...
Loading historical data...
Loading historical data...
Loading historical data...
Loading historical data...
Loading historical data...
Loading historical data...

Documentation

Showing up to 5 results
|